Wind_Speed
36 35 35 36 36 35 35 34 34 35 33 28 25 27 30 32 32 29 29 30 30 29 28 28 28 27 27 27 26 25 24 23 23 23 22 21 22 23 23 22 21 20 20 21 21 21 20 20 19 19 19 20 22 24 24 23 23 24 23 23 24 23 22 21 22 24 26 26 25 24 26 28 28 27 25 24 22 21 20 19 19 19 18 17 17
36 36 36 35 35 35 35 35 35 36 36 32 28 28 31 33 33 32 31 31 32 31 29 29 30 29 29 29 29 27 25 25 25 24 23 23 23 24 24 23 22 22 22 22 22 22 22 21 20 19 20 21 23 24 24 24 24 24 24 24 24 24 23 23 24 24 26 27 26 25 28 29 28 27 25 24 22 21 20 20 20 20 18 17 18
36 37 36 36 35 35 35 36 37 36 37 36 33 31 32 34 35 34 32 32 32 32 31 31 31 30 30 30 30 30 28 26 26 26 25 25 25 25 25 25 24 24 23 23 23 24 23 22 21 20 21 22 24 25 25 25 24 25 26 25 24 24 24 24 25 25 26 27 27 27 29 30 29 27 26 24 23 22 21 21 21 20 18 16 18
37 37 37 37 35 34 34 36 38 37 37 37 36 34 34 35 35 35 34 34 34 33 33 33 32 31 32 32 32 31 30 28 27 27 27 27 27 26 26 27 26 25 23 23 24 25 25 25 24 24 23 24 24 25 27 26 25 26 27 27 25 25 25 25 25 26 26 27 28 29 30 30 29 28 26 25 24 23 22 22 21 21 19 17 18
39 38 38 38 37 35 34 36 38 39 38 38 37 36 36 35 36 36 35 35 35 35 35 34 32 32 32 33 33 33 32 30 29 29 30 30 28 27 28 29 26 24 23 24 25 26 27 27 27 27 27 26 26 27 28 27 27 27 27 27 27 27 27 27 27 27 27 27 28 29 30 30 29 28 27 25 24 23 24 23 22 22 21 20 19
39 39 39 39 39 37 35 35 37 39 39 39 38 37 37 36 36 37 37 37 37 37 35 32 32 33 33 33 35 34 34 33 32 32 32 31 29 28 29 28 25 25 26 27 27 28 28 28 28 29 30 29 29 29 29 29 29 29 28 28 28 29 28 28 28 28 28 28 29 30 30 29 28 27 26 25 24 24 25 25 23 23 23 22 21
39 39 40 40 39 38 36 36 36 38 40 40 39 38 38 37 37 38 39 39 39 37 35 33 34 36 34 34 35 36 37 36 36 35 34 32 31 30 29 28 27 27 28 28 28 29 29 29 29 29 30 31 31 31 31 30 30 31 31 30 30 30 30 29 29 29 28 29 29 29 29 28 26 25 25 26 26 26 26 25 24 24 24 24 23
39 40 40 40 40 38 36 36 35 36 39 41 41 39 38 38 38 38 40 41 40 39 37 36 38 38 37 36 37 38 39 39 39 38 37 35 35 33 31 30 30 30 29 29 30 30 31 31 32 31 32 33 32 32 32 32 32 33 32 31 31 31 31 31 30 29 28 29 29 28 28 27 26 26 26 27 28 27 26 26 25 25 25 25 25
39 39 40 40 40 39 36 35 35 35 37 41 42 41 39 38 38 38 40 42 41 40 40 39 40 40 39 38 38 39 41 41 39 38 39 38 38 38 37 34 33 32 30 30 31 32 32 32 34 35 35 35 33 32 33 34 35 35 33 32 31 31 31 31 30 29 28 28 29 28 27 26 26 26 27 28 29 28 27 26 26 26 26 26 26
38 39 40 40 40 39 36 35 35 34 35 39 42 42 41 40 39 39 42 43 42 42 42 40 40 40 39 37 36 38 43 43 37 36 39 40 39 39 39 37 36 35 33 32 32 33 33 34 35 35 35 35 33 32 32 34 35 35 34 33 32 31 31 30 30 29 29 30 30 29 27 26 27 28 27 28 30 29 28 27 27 27 27 27 27
39 39 40 40 39 38 36 35 36 35 35 38 41 43 43 41 40 40 42 42 42 43 42 41 41 40 38 37 37 39 43 41 35 34 37 38 38 39 38 38 37 37 36 34 34 35 35 34 35 34 35 36 35 32 32 33 35 35 34 35 34 33 32 31 31 30 31 31 31 29 27 27 29 29 29 30 31 29 28 27 27 27 27 28 27
40 40 41 41 39 36 35 35 36 35 35 37 40 43 44 42 41 41 41 40 41 42 42 41 42 40 39 38 38 38 39 37 32 33 35 36 37 38 38 38 38 37 37 37 37 37 35 35 36 36 37 39 36 32 33 34 34 34 34 35 35 34 34 33 33 33 33 32 31 29 28 28 29 30 31 32 31 29 28 28 28 28 28 28 28
42 42 43 42 38 35 34 35 35 35 35 36 38 42 43 42 42 43 42 40 40 42 42 43 42 40 39 39 37 37 37 35 31 33 35 35 36 37 37 38 38 38 39 39 38 37 36 36 37 38 38 39 37 34 34 34 33 34 35 35 35 36 35 35 35 34 34 33 32 31 31 30 30 31 33 32 31 30 29 29 28 29 28 28 28
44 44 43 40 36 34 33 34 34 33 34 35 36 39 40 42 43 43 42 41 40 41 42 42 42 41 39 39 38 36 36 35 33 34 36 36 37 36 35 37 38 38 39 40 38 37 36 36 38 39 39 40 39 37 33 32 34 35 35 35 36 37 37 36 36 35 35 34 34 34 33 32 32 33 34 33 31 30 30 29 29 29 28 28 28
46 46 43 38 33 31 32 32 32 31 32 34 36 38 39 40 41 41 41 40 40 41 42 41 42 42 40 39 38 35 35 37 35 34 36 37 38 38 36 35 36 38 39 39 37 36 36 36 37 38 39 40 40 39 35 33 36 37 35 35 37 38 37 36 36 36 36 36 36 35 34 33 34 35 34 33 31 31 31 30 29 29 28 29 28
47 45 41 35 32 31 31 31 30 29 29 31 35 37 38 38 39 40 41 41 41 41 41 40 41 42 41 39 37 35 36 37 36 35 37 38 39 39 38 36 35 37 38 38 36 35 35 36 36 37 38 38 37 37 36 36 37 37 36 36 36 36 36 36 36 36 37 37 37 36 35 34 35 35 34 33 31 31 31 29 29 29 29 30 29
43 40 36 33 32 32 31 29 29 27 27 28 31 34 36 36 37 39 41 42 42 41 40 40 41 41 40 39 37 36 36 37 36 36 37 38 39 40 38 36 35 36 37 37 36 36 36 37 36 35 34 34 34 36 37 37 37 36 35 33 33 34 35 35 36 36 35 36 35 35 34 34 35 35 33 32 31 30 30 29 28 29 29 31 30
37 35 32 31 30 30 30 28 27 26 26 25 27 31 34 35 35 38 41 42 41 40 40 40 41 41 39 38 38 36 36 36 35 37 38 38 39 40 39 37 36 36 36 36 36 37 37 36 34 33 33 34 36 37 36 35 34 33 33 33 33 34 34 35 35 35 34 34 34 34 34 35 36 35 33 31 29 29 29 28 28 29 30 31 31
34 32 30 29 28 27 28 27 25 25 25 25 25 28 31 33 35 37 40 41 40 41 41 40 40 40 39 39 38 37 36 35 35 37 39 39 38 38 37 35 35 35 34 35 37 37 37 35 33 33 34 35 36 36 33 33 34 33 33 34 33 33 34 34 34 34 34 34 34 34 35 37 38 36 33 30 28 28 28 29 29 30 31 32 32
32 30 28 27 25 23 25 26 25 24 23 24 25 27 29 32 35 36 37 39 39 40 40 40 40 40 39 39 39 38 36 35 35 37 39 40 40 39 35 34 35 35 34 35 38 38 38 37 34 33 33 35 37 36 33 33 33 32 32 33 33 34 34 33 33 33 33 33 34 35 37 39 39 36 32 29 28 29 29 29 29 30 31 32 33
30 28 26 24 23 22 22 24 24 23 22 22 24 26 28 30 32 34 35 37 38 37 39 40 40 40 39 38 37 38 37 36 36 38 39 40 41 40 36 35 36 36 35 36 39 39 39 37 35 33 34 35 37 36 34 31 30 30 32 34 34 34 33 33 33 33 33 34 35 37 38 40 38 35 32 30 30 30 29 29 29 31 32 34 34
28 26 24 23 22 21 21 23 24 24 23 22 23 26 27 28 30 32 33 35 36 36 37 40 41 41 40 37 35 37 38 38 38 38 39 40 42 40 36 34 35 36 35 35 37 38 39 38 36 35 35 36 37 39 37 33 31 31 33 35 36 35 35 35 34 33 34 34 36 37 39 39 37 34 31 30 30 29 28 29 30 32 33 35 36
27 25 23 22 22 22 23 24 24 24 22 21 22 25 28 27 28 30 32 34 35 35 35 38 41 41 41 39 36 36 39 40 39 38 38 39 41 39 34 33 34 36 35 35 37 38 38 38 36 35 34 35 35 36 36 34 34 35 36 37 37 37 37 36 35 34 34 34 35 36 37 35 33 31 29 29 28 28 28 30 31 33 35 36 37
26 24 23 23 23 24 24 23 21 20 20 21 22 25 27 27 27 29 31 32 34 34 35 37 40 42 41 39 36 35 36 37 38 38 38 38 38 37 35 35 36 36 35 35 36 36 35 35 35 35 35 36 37 38 40 41 40 39 38 38 38 37 37 37 36 34 33 33 33 33 32 30 29 28 27 27 28 28 30 31 33 34 36 37 37
25 24 23 24 24 24 22 19 18 19 20 20 21 23 24 25 26 28 29 30 31 32 33 35 38 40 40 39 36 34 34 36 37 37 38 36 36 36 36 36 36 36 36 34 33 33 34 34 33 32 33 35 39 42 45 45 42 38 38 38 37 37 38 37 35 32 31 30 30 29 28 28 27 27 26 27 28 29 31 33 34 36 36 37 38
25 24 24 24 24 22 19 17 17 19 18 18 19 21 23 24 25 25 26 27 29 30 30 31 34 38 39 38 35 33 34 35 35 36 36 36 36 36 35 35 36 35 34 33 32 31 31 32 32 31 33 35 39 42 45 45 42 40 39 39 38 37 36 34 31 29 28 28 28 27 27 26 26 26 27 28 29 31 32 34 36 37 38 39 40
24 24 24 24 23 20 17 16 17 18 18 17 17 18 20 21 22 22 23 25 27 29 29 29 32 37 40 38 35 33 33 34 34 34 34 34 37 37 35 33 35 35 34 33 32 30 30 32 33 35 37 39 41 42 43 43 41 39 39 38 36 34 32 30 28 27 27 27 27 27 26 26 26 27 28 29 31 33 34 36 37 38 40 41 41
23 22 23 23 21 18 17 18 18 18 18 17 17 17 18 19 20 20 22 24 26 28 29 30 31 33 35 34 32 32 32 32 32 33 33 33 34 36 34 33 34 33 31 31 31 32 33 36 37 38 39 40 39 40 40 40 39 37 35 33 32 30 29 27 26 25 26 26 26 26 25 25 26 27 29 31 33 34 36 37 39 40 40 40 39
22 21 22 22 19 17 18 19 19 18 16 17 18 18 18 19 20 21 22 23 25 26 27 28 29 29 29 27 28 29 31 31 32 33 33 33 33 35 36 36 35 33 32 32 32 33 35 37 39 41 40 38 37 38 38 38 36 33 30 29 28 28 27 25 24 25 25 25 25 24 25 25 27 29 31 32 34 36 38 39 39 39 38 37 37
22 21 20 19 17 16 17 18 18 17 15 16 18 18 18 19 20 21 20 20 21 23 24 24 25 26 26 25 25 26 28 30 32 33 33 33 33 35 36 34 33 32 32 33 33 34 35 35 35 36 37 36 35 34 33 32 30 28 27 27 26 25 24 24 24 24 24 23 23 24 25 27 29 31 32 34 36 37 38 38 38 37 36 36 35
21 19 17 16 15 15 16 17 18 17 16 16 18 18 17 17 18 17 17 18 20 20 20 21 22 24 25 25 24 25 26 27 27 29 32 33 32 32 32 30 28 27 28 32 35 37 37 35 34 34 36 36 34 31 29 27 26 25 25 24 24 23 23 24 24 23 22 23 23 25 27 29 31 33 34 36 37 37 36 36 36 36 36 35 35
20 18 17 16 15 14 14 15 16 15 16 17 16 14 13 13 15 15 15 16 18 18 18 19 21 23 24 25 26 26 27 27 27 27 29 30 30 30 29 30 29 27 30 36 39 38 37 37 36 34 33 32 30 28 26 24 23 22 22 22 22 23 23 23 22 22 22 23 25 27 29 31 32 34 35 35 35 34 34 34 34 34 34 35 36
18 17 16 14 14 13 12 12 12 12 12 13 12 11 10 10 13 14 13 13 15 17 19 22 23 23 24 25 26 26 26 28 29 30 29 28 29 28 28 30 31 31 37 42 40 35 33 33 31 28 27 26 25 24 22 21 20 20 20 21 22 22 22 21 22 23 24 25 27 28 30 32 33 34 34 33 32 32 33 33 33 34 35 36 37
16 15 14 13 13 11 10 9 8 8 7 7 7 8 8 8 11 11 11 12 14 15 17 20 22 24 25 26 26 24 23 23 25 27 28 27 27 26 26 27 27 27 32 37 35 30 28 27 26 25 24 23 21 21 20 19 19 19 20 21 22 22 22 22 23 25 26 27 28 30 32 33 33 32 32 32 32 33 33 34 35 36 37 39 40
15 14 14 13 12 10 9 9 8 7 8 7 5 5 7 8 9 9 8 10 11 11 13 15 17 19 22 25 26 24 22 20 20 22 23 23 23 23 24 26 26 25 26 27 26 25 25 24 23 21 19 18 18 19 19 18 18 20 21 22 22 22 23 24 26 26 27 28 30 31 32 32 32 31 32 33 34 34 35 36 38 39 40 41 42
14 13 12 12 10 9 9 9 7 7 7 6 4 4 5 6 7 8 8 9 10 10 12 14 13 13 16 19 21 21 21 20 19 19 20 21 21 22 23 25 27 28 28 26 23 21 20 19 17 16 16 16 17 17 18 19 19 21 22 22 22 23 25 26 27 28 29 30 31 32 32 32 32 32 33 35 35 36 37 39 40 42 43 44 45
14 12 11 10 10 10 10 9 8 7 6 5 5 6 6 4 4 7 9 10 11 12 14 14 13 11 12 14 16 18 19 20 20 20 21 22 22 23 24 25 28 30 30 27 23 20 16 14 14 14 15 16 17 18 19 20 21 22 23 23 24 25 27 28 29 30 30 31 32 32 32 32 33 34 36 37 38 39 40 42 44 45 46 46 46
14 12 11 10 11 11 12 11 10 9 8 7 7 7 6 5 5 6 7 7 7 8 11 13 13 13 13 13 14 15 16 17 18 19 20 21 22 23 22 23 25 27 27 26 25 21 16 14 14 14 15 16 18 19 20 21 23 23 23 24 25 27 28 29 30 31 31 32 32 32 32 33 35 37 38 38 39 42 44 47 49 49 48 47 46
13 12 11 10 11 12 12 11 10 9 9 8 7 6 5 5 5 6 6 5 4 4 6 9 11 13 14 14 13 13 14 15 16 17 19 20 21 21 19 19 20 22 23 24 23 18 16 16 16 16 17 18 19 20 21 22 23 23 24 25 27 28 29 30 30 31 31 32 32 33 34 35 37 39 40 41 44 46 49 51 51 50 48 47 47
12 11 10 11 11 12 12 12 12 11 9 8 7 6 4 4 5 5 5 3 2 3 3 3 4 6 9 11 12 12 13 14 16 19 21 20 18 17 17 18 21 22 22 21 18 17 18 19 19 19 20 20 20 21 22 22 22 23 24 26 27 28 29 30 31 32 32 33 34 35 36 38 40 42 44 46 48 50 51 52 51 49 47 47 46
11 10 11 12 11 12 13 13 12 10 9 9 8 7 5 4 4 5 4 1 1 3 2 1 1 2 4 7 7 7 9 11 12 14 15 14 15 18 20 20 22 22 20 19 20 22 23 23 23 23 23 23 23 23 23 23 23 24 25 26 27 29 30 32 33 34 35 36 37 38 40 43 45 46 47 49 52 53 53 52 50 48 46 45 43
10 11 12 13 12 13 14 13 11 10 10 10 9 7 6 5 5 5 3 1 2 3 2 2 3 4 6 6 6 6 8 8 7 10 13 10 10 17 22 21 20 20 20 22 25 27 27 28 27 26 25 24 24 25 25 25 25 26 26 27 29 30 32 33 35 36 37 38 40 42 44 47 49 49 50 52 53 52 50 48 46 44 42 40 37
11 12 13 12 12 15 16 14 12 12 12 11 10 8 7 6 6 6 4 3 3 4 3 3 4 5 6 7 6 7 7 6 7 16 24 20 12 13 18 20 21 22 24 26 28 30 30 31 31 29 27 26 26 26 26 27 27 28 28 29 30 32 33 34 35 36 38 40 42 44 46 48 50 50 51 52 51 49 46 43 40 38 36 35 34
12 12 13 12 14 18 19 17 14 14 14 13 11 10 8 7 6 6 5 3 3 4 5 5 5 5 5 6 6 6 7 6 7 15 23 22 17 16 19 22 25 26 28 29 31 31 32 33 33 32 31 29 27 26 27 28 29 31 32 33 34 34 35 36 37 38 40 42 43 45 46 48 49 50 50 49 47 44 40 36 33 32 32 32 33
12 12 12 11 13 18 21 19 16 15 15 15 13 11 9 7 7 7 6 5 5 5 5 6 7 6 5 6 6 5 7 8 8 11 15 18 19 20 22 25 27 28 30 32 33 33 33 34 35 34 32 30 28 28 29 31 34 35 36 37 37 36 36 37 38 39 40 41 44 46 47 48 48 47 45 42 38 34 32 30 30 30 32 33 34
10 10 11 11 12 16 21 21 18 15 15 15 15 13 11 9 8 8 8 8 7 6 6 7 7 6 6 8 8 7 7 8 9 10 13 16 19 23 25 27 28 30 31 31 32 33 34 35 34 32 30 29 29 30 32 34 36 37 37 37 37 37 38 38 39 41 42 44 45 45 45 43 41 38 35 33 30 29 29 29 30 31 33 34 35
9 9 10 10 11 15 20 21 18 16 15 16 16 14 13 11 11 10 11 10 9 8 8 7 7 6 8 10 10 9 8 9 10 12 16 20 24 26 27 28 29 30 30 30 32 34 35 33 30 29 30 31 33 34 34 35 37 37 37 37 38 38 39 41 42 42 42 41 39 37 35 33 31 30 29 29 29 29 30 30 31 33 34 35 36
6 7 7 8 9 13 17 19 18 17 16 16 16 15 15 14 14 13 12 12 11 10 9 8 7 6 7 8 8 9 11 13 14 16 19 23 23 22 23 27 31 33 32 32 33 33 31 29 28 28 30 31 32 32 32 33 34 36 36 37 38 38 39 39 39 37 35 33 32 31 30 29 29 28 28 28 29 30 30 32 33 34 34 35 36
4 4 4 5 6 8 13 16 17 17 16 16 16 16 16 16 15 15 13 12 11 10 9 8 7 7 7 8 10 13 16 16 15 17 20 21 19 18 21 27 33 36 35 34 32 29 27 27 27 28 28 28 28 29 30 31 32 33 34 35 35 35 34 33 32 30 29 29 29 28 28 28 28 28 28 29 30 31 32 33 34 34 35 36 36
4 4 4 4 5 6 8 10 10 11 13 13 13 13 13 13 13 13 12 11 10 9 7 7 6 6 8 10 13 16 19 19 20 21 23 24 22 22 24 28 31 32 32 32 30 29 28 28 28 28 29 30 30 31 31 32 31 31 31 31 30 30 29 28 28 28 27 27 27 28 28 28 28 29 30 30 31 32 33 34 35 35 36 36 36
4 4 4 4 5 5 5 5 5 6 7 7 7 7 8 9 10 10 10 9 9 8 7 7 6 6 7 10 11 13 15 17 18 20 22 22 23 24 26 26 25 25 25 25 26 26 27 28 29 30 30 30 30 29 29 28 28 28 28 27 27 27 27 27 27 27 27 27 28 28 29 29 30 31 32 32 33 34 35 35 36 36 36 36 36
Wind_Direction
299 300 298 291 285 282 280 276 272 273 272 264 251 246 246 247 247 245 242 240 240 241 241 239 237 236 237 237 236 235 236 238 238 238 239 241 244 247 248 247 247 248 250 251 253 253 253 253 253 255 258 260 262 263 264 265 266 268 270 270 271 272 273 272 271 274 280 283 285 287 289 292 293 291 291 292 290 288 287 288 289 289 290 291 291
297 298 299 296 287 278 275 274 269 266 268 267 258 248 244 244 246 244 242 242 242 242 243 242 239 235 234 237 237 235 234 235 237 237 238 239 242 247 250 250 250 250 251 253 255 257 257 256 257 258 259 260 261 263 263 264 265 267 267 267 268 270 271 272 273 276 280 283 285 287 291 293 292 290 290 290 287 285 283 284 285 285 285 287 287
297 297 298 298 293 281 272 269 267 263 261 263 261 253 245 244 244 243 241 242 242 242 242 243 242 237 234 236 237 238 237 235 235 237 237 238 239 243 248 250 250 250 252 254 257 261 262 261 261 261 260 261 262 263 263 263 264 265 265 266 266 267 268 270 274 276 278 281 284 287 292 293 290 288 288 287 285 283 280 281 282 283 283 284 284
297 298 298 299 296 288 275 267 264 261 257 257 259 257 251 247 245 244 241 239 240 240 239 240 241 240 237 235 236 238 239 238 236 236 236 237 238 240 244 246 248 250 253 257 259 262 264 265 265 263 262 263 264 265 266 266 265 265 266 267 267 267 268 270 272 274 276 279 282 285 290 290 287 285 286 286 285 282 281 283 284 284 285 284 282
297 298 299 300 298 293 282 270 263 260 256 254 254 257 255 251 248 247 244 240 239 239 239 238 240 241 239 237 235 236 237 237 237 237 236 236 238 240 243 245 247 248 251 255 257 259 261 263 265 264 263 263 265 267 269 270 269 266 266 268 268 269 269 270 272 273 275 278 281 284 288 287 284 283 284 285 285 283 283 285 284 283 286 285 283
296 298 299 300 300 296 288 276 266 259 256 252 250 252 255 253 250 247 243 241 240 240 240 239 240 240 239 237 235 235 234 235 236 238 238 238 239 241 243 245 246 244 246 250 251 253 255 257 260 262 264 265 265 266 268 270 271 270 269 269 268 269 270 271 273 274 276 279 282 286 288 285 281 279 280 283 284 283 284 285 283 284 285 285 285
295 297 299 300 301 298 291 283 272 261 255 252 248 248 251 253 251 247 242 241 240 240 241 239 237 237 238 237 235 235 234 233 235 237 238 238 238 240 243 245 244 242 242 245 248 249 248 250 255 260 264 266 266 267 269 269 270 270 271 270 269 269 270 270 271 273 276 279 282 287 288 284 280 276 278 284 285 282 282 283 283 284 286 287 287
295 297 299 300 301 299 292 285 278 266 255 251 248 246 247 250 250 247 243 240 239 238 238 238 236 234 234 236 235 235 234 233 235 237 238 237 237 239 242 243 244 243 242 245 248 249 248 250 254 257 260 263 264 267 270 270 270 270 269 269 269 269 270 270 270 272 275 278 282 286 286 283 280 278 280 284 285 282 282 282 282 284 285 287 288
295 297 299 299 300 298 291 284 279 271 259 251 248 245 245 247 248 246 243 240 239 238 237 238 239 238 238 240 239 239 238 236 236 237 238 237 237 239 241 242 244 244 242 244 248 251 251 251 253 255 258 262 264 266 269 271 271 271 269 268 268 269 269 268 269 271 273 275 279 284 285 283 280 280 281 283 283 282 282 280 281 283 284 285 286
296 297 298 299 299 296 290 282 278 273 263 253 248 245 243 244 246 245 243 239 238 237 236 237 240 241 244 246 245 244 244 244 241 239 239 238 237 239 240 241 242 243 242 242 247 252 251 250 252 254 258 263 263 264 268 270 271 270 268 266 266 268 268 268 269 273 274 275 276 279 283 283 282 282 282 281 281 280 279 279 280 281 282 283 285
297 298 298 298 296 292 286 281 277 273 264 255 249 245 243 242 242 243 242 239 237 236 236 236 237 239 242 246 246 246 249 254 252 244 242 242 241 241 242 242 242 243 243 243 245 250 252 253 254 254 256 261 261 261 265 268 268 269 268 266 265 267 268 267 269 273 275 275 275 277 279 281 282 283 282 279 279 278 278 278 279 280 280 282 283
299 299 299 298 294 288 282 277 275 271 263 255 249 246 243 241 241 242 242 240 237 236 235 234 235 237 239 241 242 243 250 260 259 248 246 248 247 247 247 246 246 245 246 245 245 248 252 255 257 256 257 258 257 258 262 264 266 267 266 266 266 268 268 268 269 272 274 274 273 274 275 277 279 280 279 277 278 278 278 278 278 278 279 280 283
299 300 299 297 292 285 279 276 274 271 263 255 250 247 245 243 242 242 241 239 236 235 235 234 233 234 236 239 240 240 245 254 253 246 246 249 250 251 251 251 251 250 249 249 249 249 250 253 257 259 260 257 253 254 257 261 264 265 264 266 267 267 267 266 268 271 273 273 272 273 275 278 279 279 278 278 278 278 278 277 277 277 278 280 283
300 300 298 295 289 283 281 278 275 270 263 256 252 249 248 246 244 243 240 237 234 233 235 235 232 230 232 238 241 240 243 248 248 244 245 247 248 250 251 252 253 253 252 253 253 254 254 254 256 258 260 258 256 256 258 260 263 264 265 266 267 266 264 264 266 269 271 271 272 273 275 278 279 279 278 277 277 277 277 277 276 276 278 280 282
301 300 297 294 289 284 281 277 272 267 262 257 252 249 247 247 247 246 242 238 233 232 234 235 233 229 229 234 238 238 241 246 246 245 247 248 247 248 249 251 254 255 255 256 258 258 258 259 259 259 261 260 258 258 261 263 263 263 263 264 264 264 263 263 264 267 269 271 272 272 274 279 282 281 277 275 275 275 275 276 276 277 278 280 283
302 299 297 295 290 285 281 274 268 267 264 258 252 249 247 246 246 247 245 241 236 232 231 233 234 232 230 230 232 233 238 243 245 246 248 249 248 248 248 251 254 257 259 260 260 259 259 260 261 262 262 261 260 260 261 262 262 260 259 260 263 264 264 264 266 269 271 273 274 275 277 281 284 281 274 271 272 273 273 274 275 277 280 281 284
301 299 298 295 291 287 283 274 266 265 264 258 251 247 246 244 244 245 245 242 239 235 231 231 233 234 232 229 227 229 234 239 243 245 246 247 249 250 250 251 255 259 261 261 260 259 259 259 261 262 263 262 261 260 260 261 259 257 256 258 262 265 265 266 270 272 274 274 275 277 278 281 282 278 272 269 270 270 271 273 275 278 280 282 285
301 300 298 296 293 290 284 275 265 261 260 256 250 245 244 243 242 243 244 243 240 237 234 232 230 231 233 231 227 227 230 235 239 243 245 246 248 250 250 251 254 257 259 261 262 262 260 259 260 262 264 262 259 259 260 259 257 256 259 262 264 264 265 268 272 275 276 276 276 277 278 280 280 276 269 266 267 268 269 272 274 277 279 282 285
302 301 298 298 296 290 283 275 267 262 260 258 253 246 243 242 242 242 243 242 240 238 237 235 230 228 231 232 230 229 229 231 235 240 244 245 246 248 249 249 251 254 256 260 263 262 260 260 260 262 263 262 262 262 262 260 259 259 261 264 265 265 266 270 274 276 276 276 277 278 278 279 278 272 266 264 264 266 268 270 273 276 279 282 285
304 301 299 298 295 289 282 276 271 266 261 258 255 249 243 241 242 243 243 241 240 239 239 236 231 228 228 230 233 233 231 231 233 237 242 245 246 248 248 246 248 252 256 258 260 259 258 257 257 259 260 262 266 266 259 255 258 260 260 262 265 267 270 273 276 276 275 275 277 278 278 278 275 269 263 261 262 264 267 270 274 277 279 282 285
305 300 299 299 295 289 284 279 274 270 266 261 256 250 244 242 242 243 243 241 240 241 240 238 235 231 227 228 233 236 235 234 233 235 240 244 246 247 247 244 247 253 255 256 257 258 257 256 256 259 261 263 266 265 259 255 254 253 256 263 266 269 273 276 276 275 275 275 276 277 276 274 270 265 262 262 263 265 268 271 274 277 279 282 285
304 299 299 300 295 289 287 283 276 271 268 264 258 249 245 242 240 240 240 238 239 241 241 239 237 233 228 227 231 235 236 236 236 235 236 240 244 246 247 246 250 254 255 256 258 258 258 259 262 264 264 264 263 261 259 257 251 247 252 260 265 271 276 276 274 275 276 276 277 276 274 271 267 265 265 264 264 265 268 271 274 277 280 283 285
304 301 301 301 295 290 290 286 278 270 265 264 259 250 245 242 239 237 237 237 237 238 238 238 236 233 230 228 228 231 234 237 238 237 237 239 243 246 247 249 250 253 256 257 257 257 259 262 265 264 262 260 257 253 252 250 247 249 255 261 267 273 274 272 273 277 279 278 277 275 272 269 266 264 263 263 264 267 270 273 276 279 282 284 286
305 303 303 301 296 292 290 286 278 269 262 261 260 252 244 241 238 236 237 238 237 237 238 239 237 233 230 229 229 231 234 235 238 239 239 241 243 245 247 249 250 252 255 256 257 258 260 261 262 262 259 254 249 248 249 250 252 256 261 265 267 269 268 269 274 277 277 275 273 271 267 264 261 261 261 263 266 270 273 276 279 282 284 285 287
304 303 303 302 298 294 288 282 277 271 263 260 258 251 245 241 238 235 237 239 238 238 240 242 239 233 231 232 233 235 235 234 235 239 240 241 243 245 246 247 249 252 254 255 256 257 258 259 260 259 255 250 248 249 252 253 254 257 262 264 264 264 266 270 273 273 271 269 266 263 259 258 259 261 263 266 270 273 276 279 281 283 284 286 288
304 303 304 303 300 293 284 281 281 275 268 265 260 250 245 242 237 235 239 240 239 238 239 241 239 235 233 235 236 236 237 236 235 238 240 240 242 245 245 246 248 251 254 256 257 257 257 257 255 252 248 246 248 252 255 254 255 258 261 263 264 264 265 267 266 265 264 262 259 258 257 258 261 263 266 270 273 276 279 281 282 284 285 287 288
305 304 304 304 300 289 280 282 286 279 272 271 266 254 248 246 239 238 242 243 240 239 238 241 241 236 234 237 238 237 239 238 237 239 241 240 242 246 248 248 249 251 254 256 257 256 254 253 252 252 252 252 253 255 256 256 258 260 261 262 263 263 261 260 258 258 258 257 257 258 259 261 263 266 269 273 275 277 280 282 284 285 287 288 289
306 305 305 305 299 286 277 280 287 286 277 270 265 256 251 250 247 248 252 250 245 243 242 245 244 236 233 236 238 237 239 241 240 240 241 241 243 246 249 250 251 252 254 256 256 256 254 253 253 252 250 250 251 253 256 259 261 262 261 260 259 258 257 256 255 254 254 255 257 259 261 264 267 270 273 275 278 280 282 283 285 286 287 288 288
308 307 308 305 295 285 279 279 286 291 284 271 263 255 249 251 255 259 259 253 248 245 245 248 245 236 230 234 237 238 241 243 241 240 240 243 245 247 250 251 251 251 254 256 257 255 250 245 244 244 244 246 250 254 257 260 260 258 256 255 255 255 256 256 255 254 254 255 258 261 265 268 271 274 276 278 280 282 284 285 287 287 287 288 288
308 309 309 305 295 287 284 284 287 290 287 275 266 257 252 253 257 259 254 245 242 244 245 246 242 232 227 234 241 242 242 242 240 240 241 245 248 250 250 251 250 252 257 257 255 253 246 238 237 242 247 252 256 257 256 255 254 252 252 253 254 255 256 255 254 254 255 258 262 266 270 273 275 277 279 281 283 285 286 287 287 288 288 289 289
307 308 309 307 301 292 287 287 289 289 287 278 267 259 256 252 248 247 240 231 232 238 240 239 236 230 230 238 245 245 243 241 240 241 242 244 247 247 247 247 246 249 254 255 254 254 251 246 246 250 252 254 256 255 252 250 249 250 252 254 256 257 256 255 255 256 260 264 268 271 274 276 277 279 281 284 285 286 288 288 289 290 291 292 292
306 306 305 307 310 304 293 290 291 290 286 278 267 259 255 244 234 235 238 234 232 235 237 237 237 235 238 245 250 249 245 242 241 241 240 240 242 241 241 242 239 234 233 237 243 249 252 250 250 251 251 252 253 251 249 249 250 252 254 256 256 255 255 255 258 262 266 270 272 274 276 278 280 282 284 286 287 288 289 290 291 291 292 293 294
303 303 302 304 311 310 297 293 298 295 286 277 262 247 240 234 229 232 240 241 237 236 238 241 243 243 245 250 252 251 248 244 241 240 239 238 238 237 237 239 238 235 232 232 235 242 249 250 249 248 248 248 248 247 249 252 253 254 255 254 253 255 257 261 265 267 269 272 274 276 278 280 282 284 286 288 290 291 292 292 292 292 292 293 294
298 299 298 298 302 303 295 294 301 292 272 261 244 222 211 213 220 225 232 236 235 232 233 240 245 248 250 252 253 253 254 249 238 233 234 235 235 234 233 234 236 238 237 234 236 242 247 246 244 244 243 243 244 247 251 254 254 254 254 255 257 260 263 265 266 267 270 274 277 279 280 282 284 286 288 290 292 292 292 292 292 292 292 292 294
290 291 293 291 290 291 286 286 287 269 248 238 225 203 193 201 213 222 227 234 237 230 226 233 238 240 243 248 249 250 253 249 237 228 226 227 229 230 229 230 234 239 240 239 242 245 244 241 241 242 242 243 247 250 252 253 253 254 255 258 261 263 265 265 267 270 274 277 279 281 283 284 287 288 290 291 292 291 291 291 291 291 291 292 293
285 284 287 285 280 279 280 281 272 250 238 236 228 212 196 196 214 225 229 241 251 242 233 235 236 231 235 244 245 243 243 244 240 234 230 229 233 237 236 234 236 240 245 251 252 243 234 235 240 243 243 246 248 249 251 252 253 255 258 262 264 265 266 268 270 272 275 278 281 283 284 285 287 288 289 290 290 289 290 291 292 292 292 292 293
281 277 277 275 269 265 271 276 268 256 262 275 262 241 224 209 219 227 227 237 251 250 244 247 252 253 253 251 245 239 238 240 241 241 239 240 243 244 242 241 240 240 245 251 245 230 225 239 250 247 246 247 248 251 254 255 256 259 262 265 266 267 268 270 272 275 278 281 283 284 284 285 286 288 289 290 290 291 292 293 293 292 292 291 291
279 272 266 263 261 259 264 270 270 272 285 287 267 245 231 221 227 238 233 230 240 249 252 253 254 256 257 254 245 239 237 237 238 237 238 240 241 240 240 242 240 239 242 240 232 227 241 263 264 255 251 251 252 255 258 259 261 263 266 268 269 270 272 274 275 278 281 282 283 284 285 286 287 289 291 292 293 294 294 294 294 293 290 289 290
277 270 259 253 251 252 256 261 264 273 283 277 258 245 231 214 215 230 237 232 223 232 249 253 252 253 256 257 253 246 242 239 234 225 220 221 225 228 231 231 227 227 229 228 228 241 267 276 269 261 260 259 259 261 263 264 267 269 271 272 273 274 276 278 280 281 282 283 283 284 286 287 288 290 293 294 295 296 295 294 293 290 287 288 292
274 268 257 249 247 246 246 248 254 262 265 257 251 251 241 216 212 221 232 247 239 218 226 249 256 256 253 248 243 239 237 234 227 219 216 218 222 224 225 222 219 218 220 225 241 269 280 274 266 264 265 265 265 265 267 269 271 272 273 275 278 279 281 282 283 283 283 283 284 285 287 289 291 293 295 296 296 295 294 292 289 288 289 292 295
269 261 250 245 244 241 237 237 243 248 244 239 244 252 248 239 239 233 224 217 213 208 200 201 224 235 233 227 223 220 222 224 222 218 217 219 221 219 215 213 216 220 227 242 264 277 275 268 265 267 269 270 271 271 272 274 275 275 277 280 281 282 283 284 285 285 285 285 286 287 289 292 293 293 293 293 293 292 291 291 291 291 293 295 295
261 251 243 239 237 232 230 232 237 240 236 232 237 245 244 248 260 261 254 238 227 216 195 194 218 234 231 219 206 201 209 219 231 232 224 216 210 212 213 215 222 233 245 259 269 272 270 268 268 271 272 274 274 273 274 275 274 275 278 282 284 285 286 287 287 287 286 285 285 287 289 291 292 291 290 291 291 291 292 292 293 293 294 294 294
251 245 241 239 231 222 220 223 227 231 230 227 231 238 240 243 256 264 265 264 257 250 240 231 240 250 241 224 212 211 215 218 228 231 231 232 232 226 224 230 241 251 260 268 271 272 272 271 270 269 270 272 273 273 272 272 273 275 280 285 289 291 292 293 293 293 292 292 291 292 293 293 293 291 291 291 291 291 292 292 293 293 294 295 295
245 240 239 238 229 220 215 213 215 221 224 222 224 231 236 239 248 255 257 255 256 258 258 252 251 251 243 232 223 222 227 228 220 222 229 239 251 249 243 246 254 261 266 270 273 275 276 275 271 268 269 274 279 280 280 279 279 281 284 289 293 295 297 298 298 297 297 297 296 295 295 294 293 292 291 291 292 293 293 294 295 295 295 296 296
245 240 238 239 234 224 217 213 214 217 219 220 221 225 231 239 248 253 254 250 248 254 262 262 257 251 244 243 241 235 235 240 238 234 239 250 257 257 256 259 264 267 268 270 273 277 280 278 274 271 273 281 288 289 289 287 285 285 286 289 292 293 294 294 293 293 294 294 294 293 293 292 292 292 292 293 294 295 295 296 296 296 297 297 298
248 237 234 239 238 226 217 215 216 217 218 221 223 224 229 239 250 258 262 262 260 262 266 265 260 248 238 244 252 248 241 248 259 263 265 267 266 264 263 264 267 270 272 274 278 282 284 283 279 274 274 280 286 287 286 285 284 283 284 285 286 288 290 291 293 294 294 294 293 293 292 292 293 294 295 295 296 296 296 297 297 298 298 298 298
242 232 229 235 237 227 219 218 222 224 226 228 228 228 232 242 251 258 265 269 270 271 268 267 264 251 241 248 260 264 263 269 278 278 276 276 275 274 274 275 275 277 280 283 283 282 281 279 274 269 271 279 285 287 285 282 282 283 284 285 287 289 292 293 295 295 294 294 294 295 295 296 296 297 297 297 297 298 298 299 299 298 298 299 301
228 224 219 220 224 221 218 220 226 232 235 237 236 234 236 243 250 256 262 266 268 271 272 272 275 272 261 261 270 272 271 275 282 284 283 282 284 292 300 295 285 279 276 276 275 274 274 273 272 274 280 287 291 292 290 287 285 286 288 289 291 293 294 294 295 296 297 298 298 299 299 299 298 298 298 299 299 300 299 299 299 299 299 301 302
204 205 197 195 208 218 221 223 230 237 240 241 239 236 236 241 248 253 256 257 260 266 272 275 280 281 275 272 274 272 269 272 283 294 295 292 294 304 307 294 279 270 268 269 271 273 278 281 283 286 289 292 294 296 297 296 294 293 293 293 294 296 297 298 300 301 301 302 301 301 300 300 300 300 301 300 300 299 299 299 300 300 301 302 302
197 196 186 183 195 213 221 222 226 234 240 242 239 234 232 235 240 244 245 247 250 255 260 264 271 273 267 266 274 280 281 282 288 293 292 288 288 292 291 284 276 273 274 276 277 278 281 284 287 288 290 291 293 295 296 297 297 297 297 299 301 302 304 305 305 305 305 305 304 304 303 303 302 302 301 300 299 300 300 301 302 302 302 302 302
202 203 196 190 194 204 213 213 210 218 231 236 230 221 219 220 222 225 228 231 237 243 246 247 250 252 250 250 256 265 270 274 277 279 277 275 278 280 281 279 278 278 278 278 279 280 282 285 288 290 292 293 295 297 300 302 304 305 307 308 308 309 309 308 308 307 306 305 304 303 303 302 301 300 300 300 301 301 302 302 302 302 302 302 302
Height
5849 5848 5847 5846 5845 5845 5844 5845 5844 5843 5844 5847 5849 5849 5849 5850 5851 5854 5854 5855 5856 5857 5857 5858 5859 5861 5862 5864 5865 5866 5867 5868 5869 5871 5872 5874 5875 5875 5876 5877 5878 5878 5879 5879 5879 5880 5880 5881 5881 5881 5882 5882 5882 5881 5882 5883 5884 5884 5884 5883 5883 5884 5884 5884 5883 5882 5881 5880 5881 5881 5880 5879 5878 5877 5877 5877 5876 5874 5873 5872 5872 5871 5871 5870 5869
5845 5844 5843 5841 5840 5840 5840 5839 5839 5838 5839 5841 5843 5844 5844 5845 5846 5848 5849 5850 5851 5852 5853 5854 5854 5856 5858 5860 5862 5862 5863 5864 5865 5867 5869 5870 5871 5872 5873 5874 5875 5876 5876 5876 5877 5877 5878 5878 5878 5879 5879 5879 5878 5878 5879 5880 5881 5880 5880 5879 5879 5880 5880 5880 5880 5879 5878 5877 5877 5877 5877 5876 5875 5874 5874 5874 5873 5871 5870 5870 5869 5869 5869 5868 5867
5840 5839 5837 5836 5835 5834 5834 5834 5833 5833 5834 5835 5837 5838 5838 5839 5839 5841 5844 5845 5845 5847 5848 5849 5850 5852 5854 5857 5858 5858 5859 5860 5862 5863 5865 5865 5866 5868 5869 5871 5871 5872 5873 5874 5874 5875 5876 5876 5877 5877 5876 5876 5876 5876 5876 5877 5877 5877 5876 5876 5876 5876 5876 5876 5876 5876 5874 5873 5873 5873 5873 5872 5871 5871 5871 5871 5870 5869 5868 5867 5866 5866 5866 5867 5865
5835 5834 5832 5831 5830 5829 5829 5828 5827 5827 5828 5829 5831 5832 5833 5833 5833 5835 5837 5839 5841 5842 5843 5844 5845 5847 5850 5852 5854 5854 5855 5856 5858 5860 5861 5861 5862 5864 5865 5865 5866 5868 5870 5871 5871 5872 5873 5874 5875 5874 5874 5873 5874 5874 5873 5874 5875 5874 5873 5873 5873 5872 5872 5872 5872 5872 5871 5871 5870 5870 5870 5870 5869 5869 5868 5868 5867 5866 5865 5864 5863 5862 5863 5864 5863
5830 5828 5827 5825 5824 5823 5823 5822 5821 5822 5822 5824 5826 5826 5827 5828 5829 5831 5832 5834 5836 5837 5838 5841 5842 5843 5846 5848 5849 5850 5851 5852 5853 5855 5857 5858 5859 5860 5860 5860 5862 5865 5867 5867 5867 5868 5869 5870 5871 5871 5871 5871 5871 5871 5871 5871 5871 5871 5870 5869 5869 5869 5868 5868 5868 5868 5868 5868 5868 5868 5867 5867 5867 5866 5866 5865 5865 5864 5862 5861 5860 5860 5860 5860 5860
5824 5823 5821 5820 5818 5817 5816 5816 5815 5816 5817 5818 5820 5821 5822 5823 5824 5825 5827 5828 5830 5831 5833 5838 5840 5841 5841 5843 5844 5846 5846 5846 5848 5849 5852 5854 5855 5855 5855 5855 5858 5861 5862 5861 5862 5862 5863 5865 5867 5867 5867 5868 5868 5868 5868 5868 5867 5867 5867 5867 5866 5865 5865 5865 5865 5865 5865 5865 5864 5864 5864 5864 5865 5864 5863 5863 5862 5861 5860 5858 5857 5857 5857 5857 5857
5819 5818 5816 5815 5813 5811 5810 5809 5810 5810 5811 5812 5813 5815 5817 5818 5819 5819 5821 5823 5824 5826 5828 5832 5834 5835 5836 5838 5839 5840 5840 5841 5841 5843 5846 5850 5851 5851 5851 5852 5853 5854 5855 5856 5857 5858 5859 5860 5861 5862 5863 5864 5864 5864 5865 5865 5864 5864 5864 5863 5863 5862 5861 5861 5861 5861 5861 5861 5861 5861 5861 5861 5861 5861 5860 5860 5860 5859 5857 5855 5854 5854 5853 5853 5853
5814 5812 5811 5809 5807 5806 5804 5803 5803 5804 5804 5805 5807 5809 5811 5812 5813 5814 5815 5816 5819 5820 5822 5824 5826 5827 5829 5831 5832 5833 5834 5835 5837 5838 5840 5843 5845 5846 5847 5847 5847 5848 5850 5851 5852 5853 5854 5854 5854 5856 5858 5859 5860 5860 5860 5861 5860 5860 5860 5860 5859 5859 5858 5858 5857 5858 5858 5857 5857 5857 5857 5857 5857 5857 5857 5856 5855 5855 5854 5852 5851 5850 5850 5849 5849
5809 5807 5805 5803 5801 5800 5798 5797 5797 5798 5798 5798 5800 5802 5804 5806 5807 5808 5808 5810 5812 5815 5816 5818 5820 5821 5822 5825 5828 5829 5828 5829 5832 5834 5835 5836 5838 5840 5841 5842 5842 5843 5846 5847 5847 5848 5849 5849 5850 5851 5853 5854 5855 5856 5856 5857 5856 5857 5857 5856 5856 5855 5855 5854 5854 5854 5854 5854 5853 5853 5853 5854 5854 5854 5854 5853 5851 5850 5850 5849 5847 5847 5847 5846 5846
5803 5801 5799 5797 5795 5793 5792 5791 5790 5791 5792 5792 5793 5795 5798 5799 5800 5802 5803 5804 5807 5808 5810 5812 5814 5817 5819 5822 5825 5825 5824 5824 5827 5829 5830 5832 5833 5834 5835 5837 5837 5838 5841 5843 5843 5843 5844 5845 5846 5847 5848 5849 5850 5851 5852 5852 5853 5853 5853 5852 5852 5851 5851 5851 5850 5850 5850 5850 5850 5850 5850 5851 5850 5850 5850 5849 5847 5847 5846 5845 5844 5844 5843 5843 5843
5797 5795 5793 5791 5788 5786 5785 5784 5783 5783 5785 5786 5786 5788 5790 5792 5793 5793 5795 5798 5800 5802 5805 5807 5808 5811 5815 5818 5819 5820 5821 5823 5825 5827 5828 5829 5830 5831 5831 5832 5833 5834 5836 5838 5838 5838 5840 5841 5842 5844 5845 5845 5846 5847 5848 5848 5848 5849 5849 5848 5848 5847 5847 5847 5847 5846 5846 5846 5846 5846 5847 5847 5846 5846 5846 5845 5844 5844 5843 5842 5841 5841 5840 5840 5839
5791 5789 5786 5784 5782 5780 5778 5777 5776 5777 5778 5779 5780 5781 5784 5786 5786 5787 5789 5792 5795 5797 5800 5802 5803 5806 5810 5812 5813 5815 5818 5821 5823 5823 5824 5826 5828 5829 5829 5829 5830 5830 5831 5832 5834 5835 5837 5838 5838 5839 5839 5840 5841 5843 5843 5843 5844 5845 5845 5844 5843 5843 5843 5843 5842 5842 5842 5842 5843 5843 5843 5843 5843 5842 5841 5841 5840 5840 5839 5838 5838 5837 5837 5837 5836
5785 5783 5780 5777 5775 5774 5772 5771 5771 5771 5771 5772 5774 5776 5778 5780 5781 5781 5783 5786 5790 5792 5794 5795 5798 5802 5805 5807 5809 5811 5814 5817 5819 5819 5820 5822 5823 5825 5826 5826 5826 5827 5827 5828 5830 5832 5834 5835 5834 5834 5834 5835 5837 5838 5838 5839 5839 5840 5840 5840 5839 5838 5838 5838 5838 5838 5838 5838 5838 5838 5837 5838 5839 5838 5837 5836 5836 5836 5835 5835 5834 5834 5834 5833 5832
5779 5776 5774 5771 5769 5768 5767 5766 5766 5765 5764 5765 5767 5769 5772 5774 5775 5776 5777 5780 5783 5786 5788 5789 5792 5796 5800 5802 5804 5807 5810 5812 5815 5816 5816 5816 5817 5819 5821 5822 5822 5823 5823 5824 5826 5828 5829 5830 5831 5831 5831 5832 5833 5833 5833 5833 5834 5834 5835 5835 5834 5834 5833 5834 5834 5834 5834 5834 5834 5833 5832 5834 5834 5833 5833 5832 5832 5832 5831 5831 5831 5830 5830 5829 5829
5772 5769 5767 5766 5764 5763 5761 5760 5760 5759 5758 5759 5761 5763 5765 5768 5770 5771 5772 5774 5776 5779 5782 5785 5787 5790 5793 5796 5799 5803 5805 5807 5810 5812 5811 5812 5812 5813 5815 5817 5818 5819 5820 5821 5822 5824 5825 5825 5826 5827 5827 5827 5827 5828 5827 5828 5828 5829 5830 5830 5829 5829 5829 5829 5830 5830 5830 5830 5830 5829 5829 5829 5829 5829 5829 5828 5828 5827 5827 5827 5827 5826 5826 5825 5825
5765 5762 5761 5761 5759 5757 5755 5754 5753 5753 5752 5753 5755 5758 5760 5763 5765 5767 5768 5769 5770 5772 5776 5780 5783 5786 5788 5790 5794 5798 5800 5801 5804 5806 5807 5807 5808 5808 5810 5812 5814 5815 5816 5818 5819 5820 5821 5821 5821 5821 5821 5821 5822 5821 5821 5822 5823 5824 5824 5825 5824 5824 5825 5825 5825 5825 5826 5826 5826 5825 5825 5825 5825 5825 5824 5824 5824 5823 5823 5823 5822 5822 5821 5820 5821
5758 5756 5755 5755 5754 5752 5751 5749 5748 5748 5747 5747 5750 5752 5755 5757 5760 5762 5763 5765 5767 5768 5771 5774 5778 5781 5784 5785 5788 5791 5794 5796 5798 5800 5802 5803 5803 5804 5806 5808 5810 5811 5813 5813 5815 5816 5817 5816 5817 5817 5817 5817 5817 5816 5816 5817 5819 5819 5819 5819 5819 5820 5820 5820 5820 5821 5822 5822 5821 5821 5821 5820 5820 5820 5820 5819 5819 5819 5819 5819 5818 5817 5817 5815 5816
5753 5751 5750 5749 5748 5747 5746 5744 5744 5744 5743 5743 5744 5746 5749 5752 5755 5757 5758 5761 5764 5766 5767 5768 5771 5776 5780 5781 5782 5784 5787 5790 5793 5795 5796 5797 5798 5799 5801 5804 5805 5806 5807 5809 5810 5812 5813 5813 5813 5813 5813 5813 5813 5811 5812 5813 5813 5813 5813 5814 5815 5815 5816 5816 5817 5817 5817 5817 5816 5816 5816 5815 5815 5814 5815 5815 5815 5815 5815 5815 5814 5813 5812 5811 5811
5749 5747 5745 5744 5743 5742 5741 5740 5740 5740 5740 5739 5740 5742 5744 5747 5749 5752 5754 5756 5760 5762 5763 5764 5766 5770 5774 5777 5778 5780 5781 5784 5787 5789 5790 5792 5793 5794 5797 5800 5801 5801 5803 5804 5805 5806 5808 5808 5809 5809 5808 5809 5809 5808 5809 5808 5807 5808 5809 5809 5810 5810 5811 5812 5813 5813 5812 5812 5811 5811 5811 5810 5810 5810 5810 5810 5810 5810 5810 5810 5809 5809 5808 5807 5806
5745 5743 5741 5740 5739 5738 5737 5737 5736 5736 5737 5737 5737 5738 5740 5743 5745 5747 5750 5752 5755 5758 5759 5760 5762 5764 5768 5772 5775 5777 5777 5779 5781 5783 5785 5787 5788 5790 5793 5796 5795 5795 5798 5800 5800 5802 5804 5804 5806 5806 5805 5806 5806 5806 5805 5803 5803 5804 5805 5805 5805 5806 5806 5807 5808 5807 5807 5807 5807 5807 5806 5806 5805 5805 5805 5806 5806 5806 5805 5805 5804 5804 5803 5802 5802
5741 5739 5738 5736 5736 5735 5734 5734 5733 5733 5733 5733 5734 5735 5737 5739 5741 5743 5746 5749 5751 5754 5755 5757 5758 5760 5763 5766 5770 5773 5774 5774 5776 5777 5780 5782 5783 5785 5789 5791 5790 5790 5793 5795 5795 5796 5798 5799 5802 5803 5802 5803 5803 5801 5800 5800 5801 5801 5801 5800 5801 5801 5801 5802 5802 5802 5802 5802 5801 5801 5801 5801 5800 5800 5800 5801 5801 5801 5801 5800 5800 5799 5799 5798 5798
5737 5736 5734 5733 5732 5732 5732 5731 5730 5730 5730 5730 5731 5732 5734 5735 5737 5739 5742 5745 5748 5749 5750 5751 5753 5755 5757 5761 5765 5768 5769 5770 5771 5773 5775 5777 5778 5780 5783 5787 5787 5786 5788 5790 5791 5791 5792 5794 5796 5798 5798 5798 5798 5796 5795 5796 5796 5796 5796 5796 5796 5796 5796 5797 5797 5797 5797 5796 5796 5797 5796 5796 5796 5796 5796 5796 5796 5796 5796 5796 5795 5795 5794 5793 5792
5734 5732 5731 5730 5729 5729 5729 5728 5727 5727 5727 5726 5727 5728 5730 5731 5733 5735 5738 5741 5743 5745 5746 5747 5748 5750 5753 5756 5760 5763 5765 5766 5768 5769 5771 5773 5773 5776 5779 5782 5784 5783 5784 5786 5786 5787 5789 5790 5791 5792 5793 5793 5793 5792 5792 5791 5789 5789 5790 5791 5791 5792 5792 5791 5792 5792 5792 5792 5792 5792 5792 5792 5791 5791 5791 5791 5791 5792 5791 5791 5791 5790 5789 5788 5787
5730 5729 5728 5728 5727 5726 5726 5725 5724 5723 5723 5723 5723 5725 5726 5727 5729 5731 5734 5737 5739 5741 5743 5743 5744 5745 5748 5752 5755 5759 5761 5764 5765 5766 5768 5770 5771 5773 5775 5777 5778 5779 5780 5781 5783 5784 5785 5786 5786 5787 5788 5788 5788 5787 5787 5786 5785 5785 5786 5787 5787 5787 5787 5786 5787 5788 5788 5787 5788 5787 5787 5787 5787 5787 5787 5787 5787 5787 5787 5786 5786 5785 5784 5783 5782
5727 5727 5726 5725 5724 5723 5722 5722 5721 5720 5719 5720 5721 5722 5723 5724 5725 5727 5730 5733 5735 5737 5739 5740 5740 5742 5744 5747 5751 5755 5757 5759 5762 5764 5765 5768 5769 5770 5771 5773 5774 5775 5776 5777 5779 5780 5781 5781 5782 5781 5781 5782 5782 5782 5781 5781 5781 5782 5782 5782 5782 5782 5782 5782 5782 5783 5783 5783 5783 5783 5783 5783 5783 5783 5783 5783 5783 5783 5782 5782 5781 5780 5779 5778 5777
5725 5724 5723 5722 5721 5720 5719 5719 5718 5717 5717 5717 5718 5718 5719 5721 5722 5724 5727 5729 5731 5734 5736 5737 5738 5740 5741 5744 5748 5751 5752 5754 5757 5760 5762 5764 5765 5765 5767 5770 5771 5771 5773 5773 5775 5776 5776 5776 5776 5775 5775 5776 5776 5776 5777 5777 5777 5777 5777 5777 5777 5777 5777 5777 5777 5778 5778 5779 5779 5779 5779 5779 5779 5780 5780 5780 5779 5779 5778 5777 5776 5775 5774 5773 5772
5722 5722 5721 5720 5718 5717 5717 5717 5716 5716 5716 5716 5715 5716 5717 5718 5720 5722 5724 5727 5728 5731 5733 5734 5735 5736 5737 5740 5744 5746 5747 5749 5752 5756 5758 5760 5761 5761 5763 5766 5767 5768 5769 5770 5770 5772 5771 5770 5770 5770 5770 5771 5771 5771 5772 5772 5772 5772 5772 5772 5772 5772 5772 5772 5773 5773 5774 5774 5775 5775 5776 5776 5776 5776 5776 5775 5775 5774 5773 5772 5771 5770 5769 5768 5766
5720 5720 5718 5717 5716 5716 5715 5715 5715 5714 5714 5714 5714 5714 5715 5717 5718 5720 5722 5724 5726 5728 5730 5730 5731 5732 5734 5737 5739 5742 5743 5745 5748 5751 5754 5756 5758 5758 5759 5761 5762 5764 5766 5766 5767 5767 5766 5765 5765 5765 5765 5765 5766 5767 5767 5767 5768 5768 5767 5767 5768 5768 5768 5768 5769 5769 5770 5771 5771 5772 5772 5772 5772 5772 5771 5771 5770 5769 5769 5768 5767 5765 5764 5763 5761
5718 5718 5716 5714 5713 5713 5713 5713 5712 5712 5712 5712 5712 5712 5714 5715 5716 5717 5719 5721 5723 5725 5726 5726 5727 5729 5731 5732 5734 5737 5739 5741 5743 5746 5749 5752 5753 5754 5754 5756 5758 5760 5762 5762 5762 5762 5760 5759 5759 5760 5760 5761 5762 5762 5762 5763 5763 5763 5763 5763 5764 5764 5764 5765 5765 5766 5767 5767 5768 5768 5768 5768 5768 5767 5767 5766 5766 5765 5764 5763 5762 5760 5759 5758 5757
5715 5715 5713 5711 5711 5711 5711 5711 5710 5709 5710 5710 5710 5711 5712 5713 5713 5714 5716 5717 5719 5720 5721 5722 5723 5725 5726 5728 5731 5733 5735 5736 5738 5742 5744 5746 5748 5749 5749 5751 5754 5756 5757 5757 5757 5757 5756 5755 5755 5756 5757 5758 5758 5758 5758 5758 5758 5759 5759 5760 5760 5761 5761 5762 5762 5763 5764 5764 5764 5764 5763 5764 5763 5763 5763 5762 5761 5760 5759 5758 5756 5755 5754 5753 5752
5713 5713 5712 5710 5709 5709 5709 5708 5707 5707 5708 5708 5709 5709 5710 5710 5711 5712 5712 5713 5714 5716 5717 5719 5720 5722 5723 5725 5728 5730 5731 5733 5735 5737 5740 5741 5742 5744 5745 5747 5751 5753 5753 5751 5751 5752 5752 5752 5752 5753 5754 5754 5754 5754 5754 5754 5755 5755 5756 5756 5757 5758 5758 5759 5760 5760 5760 5760 5760 5760 5760 5760 5759 5759 5758 5758 5757 5756 5754 5752 5751 5750 5749 5748 5747
5711 5711 5710 5709 5708 5707 5706 5706 5705 5705 5706 5706 5707 5707 5707 5707 5708 5709 5710 5711 5712 5714 5715 5716 5718 5720 5722 5723 5725 5727 5728 5729 5731 5733 5735 5736 5737 5739 5742 5743 5746 5748 5748 5746 5745 5747 5749 5749 5749 5749 5749 5750 5750 5750 5751 5751 5752 5752 5753 5754 5754 5755 5755 5756 5756 5756 5756 5756 5756 5756 5756 5756 5755 5755 5754 5753 5752 5750 5749 5748 5747 5746 5745 5744 5743
5709 5709 5708 5708 5707 5706 5706 5705 5704 5704 5704 5705 5706 5706 5705 5705 5706 5708 5709 5710 5711 5712 5713 5714 5715 5717 5719 5720 5722 5723 5724 5726 5727 5729 5731 5732 5734 5736 5738 5739 5741 5743 5744 5742 5742 5743 5744 5745 5745 5746 5746 5746 5747 5747 5748 5748 5749 5750 5750 5751 5751 5752 5752 5753 5753 5752 5752 5753 5753 5753 5752 5751 5751 5750 5749 5747 5746 5745 5744 5743 5742 5741 5740 5739 5737
5707 5706 5706 5706 5706 5706 5706 5705 5704 5704 5704 5705 5705 5705 5704 5704 5704 5705 5707 5707 5708 5709 5710 5711 5712 5715 5716 5717 5718 5719 5721 5722 5723 5725 5726 5728 5730 5732 5734 5735 5736 5738 5739 5740 5740 5741 5741 5742 5742 5742 5743 5743 5744 5744 5745 5746 5746 5747 5748 5748 5748 5749 5749 5749 5749 5749 5749 5749 5749 5748 5748 5747 5746 5745 5744 5742 5741 5740 5739 5739 5737 5736 5735 5733 5731
5705 5705 5705 5705 5705 5705 5705 5705 5704 5705 5705 5705 5705 5704 5703 5703 5704 5704 5705 5706 5705 5706 5707 5707 5709 5712 5713 5713 5714 5716 5718 5719 5720 5721 5723 5725 5726 5728 5730 5731 5733 5734 5735 5736 5737 5738 5739 5739 5739 5739 5740 5741 5741 5742 5742 5743 5744 5744 5744 5745 5745 5746 5746 5746 5745 5745 5746 5745 5745 5744 5743 5742 5741 5740 5739 5738 5737 5736 5735 5734 5732 5731 5729 5727 5725
5703 5703 5703 5703 5704 5704 5704 5704 5705 5705 5705 5705 5705 5704 5703 5703 5704 5705 5705 5705 5705 5705 5705 5705 5706 5708 5710 5710 5711 5713 5716 5717 5719 5720 5721 5722 5723 5725 5726 5728 5729 5731 5731 5732 5734 5735 5736 5736 5736 5737 5738 5738 5738 5739 5740 5741 5742 5742 5741 5742 5743 5743 5742 5742 5742 5742 5742 5741 5741 5740 5738 5737 5736 5735 5734 5733 5732 5731 5730 5728 5727 5725 5723 5721 5719
5701 5702 5702 5702 5702 5703 5704 5704 5705 5705 5705 5705 5705 5705 5704 5703 5703 5704 5705 5705 5705 5705 5705 5705 5705 5707 5708 5709 5710 5711 5713 5715 5717 5717 5718 5720 5721 5722 5723 5724 5726 5727 5728 5730 5731 5732 5733 5734 5734 5735 5735 5735 5736 5737 5738 5739 5739 5738 5738 5739 5739 5739 5739 5739 5738 5738 5738 5737 5736 5734 5733 5732 5731 5731 5730 5728 5727 5726 5724 5722 5721 5719 5717 5715 5713
5699 5700 5700 5701 5701 5702 5702 5703 5703 5704 5704 5704 5704 5704 5703 5703 5703 5704 5704 5705 5705 5705 5705 5705 5705 5706 5707 5708 5709 5709 5711 5713 5714 5715 5716 5717 5719 5720 5721 5721 5722 5723 5725 5727 5728 5729 5730 5731 5731 5732 5732 5733 5733 5734 5735 5735 5735 5735 5735 5735 5735 5735 5735 5734 5734 5733 5733 5732 5730 5729 5728 5727 5726 5725 5724 5723 5721 5720 5718 5717 5715 5713 5711 5709 5707
5697 5698 5698 5699 5700 5700 5700 5701 5701 5702 5702 5702 5702 5702 5702 5702 5702 5702 5702 5703 5704 5704 5704 5704 5704 5705 5706 5707 5708 5709 5709 5711 5713 5714 5715 5715 5716 5718 5719 5719 5720 5721 5722 5724 5725 5726 5727 5728 5728 5728 5729 5730 5730 5731 5731 5731 5731 5731 5732 5731 5731 5731 5730 5730 5729 5728 5727 5726 5725 5724 5723 5722 5721 5720 5719 5717 5716 5714 5712 5710 5708 5706 5704 5703 5701
5695 5696 5696 5697 5697 5698 5698 5699 5699 5700 5701 5701 5701 5700 5701 5701 5701 5701 5701 5702 5702 5703 5703 5704 5704 5705 5705 5706 5707 5708 5709 5710 5711 5712 5713 5714 5715 5716 5717 5718 5719 5720 5721 5722 5723 5724 5725 5725 5725 5725 5726 5726 5727 5727 5727 5727 5728 5728 5727 5727 5727 5727 5726 5725 5724 5723 5722 5721 5721 5720 5719 5717 5716 5715 5713 5711 5710 5708 5705 5703 5701 5700 5698 5697 5695
5693 5693 5693 5694 5695 5696 5696 5697 5697 5698 5699 5699 5700 5700 5700 5700 5700 5700 5701 5702 5702 5702 5703 5704 5705 5704 5705 5705 5706 5707 5708 5708 5709 5710 5712 5713 5714 5714 5715 5716 5717 5719 5720 5721 5722 5722 5721 5721 5722 5722 5723 5723 5723 5723 5723 5723 5724 5723 5723 5723 5723 5722 5721 5720 5720 5719 5718 5717 5716 5715 5714 5712 5711 5709 5707 5706 5703 5701 5699 5697 5695 5694 5692 5690 5689
5690 5691 5690 5691 5692 5694 5694 5695 5696 5697 5697 5698 5699 5700 5699 5699 5700 5700 5701 5702 5702 5703 5703 5704 5704 5704 5704 5706 5706 5707 5707 5708 5709 5709 5710 5711 5713 5714 5715 5716 5717 5718 5720 5720 5719 5719 5719 5719 5719 5720 5720 5720 5719 5719 5719 5719 5719 5719 5718 5719 5718 5718 5717 5716 5715 5714 5713 5712 5711 5710 5709 5707 5705 5703 5701 5699 5697 5695 5693 5691 5689 5687 5686 5684 5683
5688 5688 5688 5689 5690 5692 5692 5693 5694 5696 5696 5698 5699 5699 5699 5699 5699 5700 5700 5701 5702 5702 5703 5704 5704 5704 5705 5706 5707 5707 5707 5709 5709 5708 5708 5710 5712 5714 5715 5716 5716 5717 5717 5717 5716 5716 5716 5716 5716 5717 5716 5716 5715 5715 5715 5715 5715 5715 5715 5715 5714 5713 5713 5712 5711 5710 5709 5707 5706 5705 5703 5701 5699 5697 5695 5693 5691 5689 5687 5685 5683 5681 5680 5679 5678
5685 5686 5687 5688 5689 5689 5690 5692 5693 5694 5696 5697 5698 5698 5699 5699 5699 5699 5700 5700 5701 5701 5702 5703 5704 5704 5705 5706 5707 5707 5708 5709 5709 5710 5710 5710 5712 5713 5713 5714 5714 5714 5714 5714 5713 5713 5713 5713 5713 5713 5713 5713 5712 5712 5712 5712 5712 5711 5711 5711 5710 5709 5708 5707 5706 5705 5704 5702 5701 5699 5697 5695 5693 5691 5689 5687 5685 5683 5681 5679 5678 5677 5676 5674 5673
5683 5684 5685 5686 5687 5688 5689 5690 5692 5693 5694 5696 5697 5697 5698 5698 5699 5699 5699 5699 5700 5700 5701 5702 5703 5704 5704 5705 5706 5706 5707 5708 5709 5710 5710 5711 5711 5711 5712 5712 5711 5711 5711 5710 5709 5709 5710 5709 5709 5709 5710 5710 5710 5709 5709 5708 5708 5707 5707 5706 5705 5704 5703 5702 5701 5699 5698 5696 5695 5693 5691 5689 5686 5684 5682 5681 5679 5677 5676 5675 5673 5672 5671 5670 5668
5682 5683 5683 5684 5684 5685 5687 5688 5690 5691 5693 5694 5695 5696 5697 5698 5698 5698 5698 5699 5699 5700 5701 5701 5701 5702 5704 5704 5705 5705 5706 5707 5708 5708 5709 5709 5709 5709 5709 5708 5708 5707 5707 5707 5707 5706 5706 5705 5705 5706 5706 5706 5706 5705 5705 5704 5703 5702 5701 5701 5700 5699 5697 5696 5695 5693 5692 5690 5688 5686 5684 5682 5680 5679 5677 5675 5674 5673 5671 5670 5669 5668 5667 5665 5663
5681 5681 5681 5682 5682 5683 5685 5687 5688 5689 5691 5692 5693 5694 5696 5697 5697 5698 5698 5698 5699 5699 5699 5700 5700 5701 5702 5703 5704 5704 5704 5705 5705 5706 5706 5706 5706 5705 5705 5705 5705 5705 5704 5704 5704 5703 5702 5702 5702 5702 5703 5702 5701 5701 5700 5699 5698 5697 5696 5695 5695 5693 5692 5690 5689 5687 5685 5684 5682 5680 5678 5677 5675 5674 5672 5671 5670 5669 5667 5666 5665 5663 5662 5660 5658
5680 5680 5680 5680 5681 5682 5684 5685 5687 5688 5689 5690 5691 5693 5694 5695 5696 5696 5697 5697 5698 5698 5698 5699 5699 5700 5700 5701 5702 5702 5702 5703 5703 5703 5703 5703 5703 5702 5702 5702 5702 5701 5701 5700 5700 5699 5699 5699 5700 5699 5699 5698 5697 5696 5695 5694 5693 5692 5691 5690 5689 5688 5686 5685 5683 5681 5680 5678 5677 5675 5674 5673 5671 5670 5668 5667 5666 5664 5663 5662 5660 5658 5657 5655 5653
5679 5680 5680 5681 5681 5682 5683 5684 5685 5687 5688 5689 5690 5691 5692 5693 5694 5695 5696 5696 5696 5697 5697 5697 5698 5698 5699 5699 5699 5699 5700 5700 5700 5700 5700 5700 5700 5700 5700 5699 5699 5699 5698 5698 5698 5697 5697 5696 5696 5695 5695 5694 5692 5691 5690 5689 5688 5687 5686 5685 5684 5682 5681 5680 5678 5677 5675 5674 5672 5671 5670 5668 5667 5666 5664 5663 5662 5660 5659 5657 5655 5653 5651 5650 5648
5679 5679 5680 5681 5682 5683 5683 5683 5685 5686 5687 5688 5688 5689 5690 5691 5692 5693 5694 5695 5695 5695 5696 5696 5697 5697 5697 5697 5697 5697 5697 5697 5697 5698 5698 5698 5699 5699 5699 5698 5698 5698 5697 5696 5695 5695 5694 5693 5692 5691 5691 5690 5689 5688 5686 5685 5684 5683 5681 5680 5679 5678 5676 5675 5674 5672 5671 5670 5668 5667 5666 5664 5663 5661 5660 5659 5657 5655 5654 5652 5650 5648 5646 5644 5642
5679 5680 5681 5681 5682 5682 5683 5683 5684 5685 5686 5686 5687 5687 5688 5689 5690 5691 5692 5693 5693 5694 5694 5695 5696 5696 5696 5696 5696 5697 5697 5696 5697 5697 5697 5697 5697 5697 5697 5696 5695 5695 5694 5693 5692 5691 5690 5689 5689 5688 5687 5686 5685 5684 5682 5681 5680 5678 5677 5676 5675 5673 5672 5671 5669 5668 5667 5666 5664 5663 5662 5660 5659 5657 5656 5654 5653 5651 5649 5647 5645 5643 5641 5639 5637